Weather in Bronytska Huta

Ukraine / Zhytomyr Region     50˚55′52″N   27˚18′50″E
temp.,
°C
wind,
m/s
gust,
m/s
humid.,
%
clouds,
%
prec.,
mm/h
press.,
hPa
HPBL,
m
2 december, wed
wed223:00−3˚ne25840 0.0 1030189
02:00−3˚ne258722 0.0 1030240
05:00−3˚ne249491 0.1 1029256
08:00−3˚ne249591 0.3 1028255
11:00−1˚ene248478 0.0 1029417
14:00−1˚e238188 0.1 1027465
17:00−1˚se2488100 0.1 1026354
20:00−1˚sse2587100 0.1 1026462
3 december, thu
thu323:00−1˚sse2683100 0.0 1025602
02:00−1˚sse3787100 0.1 1025580
05:00−1˚se3783100 0.0 1024555
08:00−2˚se398895 0.0 1024384
11:00se498495 0.0 1023509
14:00+2˚se4108497 0.0 1022718
17:00+1˚se5118697 0.0 1021773
20:00+2˚se5128998 0.0 1021803
4 december, fri
fri423:00+2˚se51391100 0.0 1020694
02:00+2˚se5129499 0.0 1019618
05:00+3˚se6129699 0.0 1018769
08:00+3˚se61381100 0.0 1018794
11:00+3˚sse71385100 0.0 1018876
14:00+5˚se61380100 0.0 1017921
17:00+6˚se61485100 0.0 1017906
20:00+6˚se71485100 0.0 1018866
5 december, sat
sat523:00+5˚se61485100 0.0 1019736
02:00+5˚se61485100 0.0 1019744
05:00+6˚se61385100 0.0 1019753
08:00+6˚se61383100 0.0 1020864
11:00+6˚se71380100 0.0 1021925
14:00+6˚se71379100 0.0 1022917
17:00+5˚se71280100 0.0 1022881
20:00+4˚se6128099 0.0 1024812
6 december, sun
sun623:00+3˚se61281100 0.0 1024783
02:00+2˚se61281100 0.0 1025686
05:00se6118597 0.0 1025582
08:00se6118698 0.0 1025641
11:00se71277100 0.0 1026663
14:00+1˚se6126678 0.0 1025757
17:00se614700 0.0 1024750
20:00−1˚se716700 0.0 1025730